{"data":{"norad_id":63557,"intl_designator":"2025-075K","name":"STARLINK-11668 [DTC]","alt_names":[],"object_type":"PAYLOAD","status":"ACTIVE","operator":null,"country":"US","launch_date":"2025-04-13","launch_site_code":"AFETR","launch_vehicle":null,"mission":null,"orbit_class":"UNKNOWN","rcs_meters":null,"size_class":null,"mass_kg":null,"dimensions":null,"purposes":["comms"],"wikipedia_slug":null,"has_3d_model":false,"image_url":null,"decayed_at":null,"tle_current":{"epoch":"2026-05-25T02:34:36.050880Z","epoch_age_seconds":62950,"freshness":"FRESH","line1":"1 63557U 25075K   26145.10736170  .00163136  00000+0  12455-2 0  9996","line2":"2 63557  43.0019  53.4936 0002670 259.9327 100.1240 15.70925430 65260","mean_motion":15.7092543,"eccentricity":0.000267,"inclination_deg":43.0019,"raan_deg":53.4936,"arg_perigee_deg":259.9327,"mean_anomaly_deg":100.124,"bstar":0.0012455,"rev_number":6526,"period_min":91.665713247764,"perigee_km":354.45281613704,"apogee_km":358.04897927441,"semimajor_km":6734.3878977057,"source":"CELESTRAK","updated_at":"2026-05-25T13:38:20.042515Z"}}}